Location: *
(38.8181°S, 103.0319°E)
Time: 14:30:23
(UTC+00:00)

Daily predictions for brighter satellites

Satellite Brightness Start Highest point End
(mag) Time Altitude Azimuth Time Altitude Azimuth Time Altitude Azimuth
Lacrosse 4 Rocket 3.7 12:04:48 10° SSW 12:05:40 15° S 12:05:40 15° S
YAOGAN 1 4.5 12:05:58 10° S 12:09:44 29° WSW 12:13:31 10° NW
Meteor 1-11 Rocket 4.0 12:04:20 10° NNW 12:10:14 72° W 12:15:41 12° S
SL-19 R/B 4.4 12:08:12 21° S 12:12:02 74° WSW 12:17:42 10° NNW
SMAP 4.5 12:08:50 10° S 12:13:10 36° WSW 12:17:26 10° NW
Cosmos 1802 Rocket 4.1 12:11:16 10° N 12:16:24 56° NE 12:16:24 56° NE
COSMOS 2455 3.6 12:12:00 10° SW 12:17:50 52° WNW 12:23:37 10° N
Cosmos 1536 4.4 12:18:18 10° NNW 12:20:27 29° NNW 12:20:27 29° NNW
DELTA 2 R/B (1) 3.6 12:19:50 10° WNW 12:25:05 79° WNW 12:25:05 79° WNW
USA 238 DEB 3.8 12:19:04 10° SSW 12:25:50 61° SE 12:25:50 61° SE
USA 238 3.8 12:19:08 10° SSW 12:25:53 60° SE 12:25:53 60° SE
SL-16 R/B 2.9 21:24:33 46° NE 21:25:33 51° ENE 21:31:04 10° SSE
Meteor 1-14 Rocket 4.5 21:32:45 65° NE 21:32:45 65° NE 21:37:48 10° NNE
Hubble Space Telescope 3.3 21:36:16 15° NNE 21:36:16 15° NNE 21:37:33 10° NE
Thor Agena Rocket 4.1 21:31:58 10° SSE 21:43:45 - N 21:35:58 51° SE
Cosmos 2322 Rocket 2.3 21:38:36 72° NE 21:38:50 73° ENE 21:44:31 10° SSE
CZ-4 R/B 2.1 21:57:31 10° NNE 22:01:28 53° ESE 22:02:43 37° SSE
Cosmos 1821 Rocket 4.3 21:57:24 10° S 22:03:34 66° E 22:09:38 10° NNE
CZ-3 R/B 3.4 21:53:39 29° WNW 22:04:05 50° NNW 22:10:43 10° ENE
SL-16 R/B 4.5 21:59:00 10° S 21:59:48 13° S 21:59:48 13° S
CSL-04 Debris 4.1 21:59:40 10° N 22:04:53 61° WNW 22:04:53 61° WNW
Okean 1 Rocket 4.2 22:04:21 10° S 22:08:40 44° E 22:12:52 10° NNE
COBE Rocket 4.2 22:04:54 10° NNE 22:09:30 62° ESE 22:13:50 12° S
Cosmos 1980 Rocket 4.0 22:13:12 17° SSW 22:13:12 17° SSW 22:14:55 10° S
Cosmos 2360 Rocket 3.2 22:05:18 10° N 22:10:41 46° ENE 22:16:08 10° SE
Cosmos 1680 Rocket 3.4 22:11:39 56° WNW 22:12:20 62° WSW 22:17:40 10° SSE
CSL-04 Rocket 4.4 22:08:16 10° N 22:11:53 35° NW 22:11:53 35° NW
Cosmos 44 Rocket 3.1 22:14:12 67° WSW 22:14:40 73° WNW 22:19:27 10° NNE
Meteor 1-20 Rocket 4.1 22:11:55 10° S 22:17:30 85° E 22:23:03 10° N
MOS 1 Rocket 3.6 22:13:34 10° N 22:18:47 61° W 22:21:34 29° SSW
Cosmos 304 Rocket 3.7 22:20:00 51° WNW 22:20:45 58° WSW 22:25:34 10° S
Cosmos 44 3.9 22:19:09 25° S 22:21:20 47° SE 22:25:47 10° NE
Cosmos 2322 4.3 22:16:47 10° N 22:22:22 58° ENE 22:28:00 10° SSE
Cosmos 1535 Rocket 4.4 22:17:43 10° S 22:24:07 77° W 22:30:20 10° N
Cosmos 1378 Rocket 4.1 22:20:17 10° N 22:24:38 59° E 22:29:00 10° SSE
Cosmos 2056 Rocket 4.5 22:20:13 10° S 22:25:23 48° ESE 22:30:35 10° NE
Cosmos 1975 Rocket 4.4 22:23:01 10° NNE 22:27:11 40° E 22:31:23 10° SSE
CZ-2C R/B 3.8 22:23:00 10° NE 22:27:18 36° ESE 22:31:46 10° S
ERBS 2.5 22:27:16 64° SSW 22:27:43 77° SE 22:31:19 10° NE
Meteor 1-22 4.5 22:23:38 10° SSW 22:29:05 77° W 22:34:26 10° N
Cosmos 1934 Rocket 4.0 22:23:26 10° S 22:29:44 89° E 22:36:03 10° N
Cosmos 2263 Rocket 2.2 22:27:28 16° SSW 22:32:01 82° ESE 22:37:39 10° NNE
Cosmos 1300 Rocket 3.5 22:28:09 12° S 22:32:16 87° W 22:36:43 10° N
Cosmos 1809 Rocket 4.4 22:27:36 10° S 22:33:51 76° W 22:39:58 10° N
Cosmos 1674 Rocket 3.9 22:35:08 10° NNW 22:39:20 43° WSW 22:43:38 10° S
Cosmos 1782 3.0 22:36:42 10° NNW 22:40:35 48° W 22:44:32 10° S
Meteor 2-10 Rocket 3.8 22:35:37 10° NNW 22:41:01 55° WSW 22:46:42 10° S
NOSS 3-4 (A) 3.7 22:41:36 19° SW 22:46:54 67° WNW 22:53:28 10° NNE
NOSS 3-4 (C) 3.7 22:41:40 18° SW 22:47:00 67° WNW 22:53:35 10° NNE
Tiangong 1 2.1 22:47:26 30° NW 22:47:50 31° NNW 22:50:40 10° NE
Abrixas rocket 4.3 22:48:21 16° S 22:48:56 16° S 22:51:12 10° SE
COSMOS 2428 3.8 22:45:51 10° N 22:51:18 48° ENE 22:56:50 10° SE
Cosmos 1238 Rocket 3.5 22:46:54 10° NNW 22:51:18 37° W 22:54:59 10° SSW
Meteor 1-11 Rocket 3.7 22:48:15 10° S 22:53:54 84° E 22:59:26 10° N
USA 116 4.5 22:52:06 10° S 22:56:12 41° WSW 23:00:44 10° NW
Cosmos 1727 Rocket 4.0 22:50:59 10° N 22:57:15 89° W 23:03:34 10° S
Okean 3 3.4 22:55:53 10° NNW 23:00:11 75° W 23:04:36 10° S
Blok-ML 3.1 22:59:50 32° W 23:00:36 43° NW 23:05:17 10° NNE
ATLAS 5 CENTAUR R/B 4.3 22:57:28 10° S 23:00:50 25° ESE 23:09:11 10° ENE
YAOGAN 1 3.0 22:58:45 10° N 23:02:52 41° W 23:07:04 10° SSW
OTV 4 1.1 23:06:14 22° WNW 23:07:47 43° NNW 23:10:40 10° ENE
Cosmos 1339 Rocket 4.5 23:01:48 10° N 23:07:55 89° ENE 23:14:07 10° S
SL-8 R/B 4.2 23:04:26 10° NW 23:09:11 62° NE 23:13:57 10° ESE
SL-16 R/B 3.3 23:06:36 14° W 23:09:57 23° SW 23:14:27 10° S
Meteor 1-27 Rocket 3.8 23:04:42 10° NNW 23:10:30 59° WSW 23:16:17 10° S
Cosmos 1606 3.2 23:07:23 10° NNW 23:10:58 36° WSW 23:14:37 10° S
Cosmos 2237 4.4 23:08:00 10° NNW 23:13:43 78° ENE 23:19:29 10° SSE
SMAP 3.5 23:10:19 10° N 23:14:44 41° W 23:19:13 10° SSW
Hubble Space Telescope 3.2 23:12:54 10° NW 23:15:05 14° NNW 23:17:15 10° NNE
Cosmos 1624 Rocket 4.2 23:11:21 10° SSW 23:16:33 53° WNW 23:21:39 10° N
Lacrosse 5 2.0 23:12:03 10° NW 23:17:10 83° NE 23:22:20 10° SE
SAR-Lupe-4 4.4 23:16:09 10° NNW 23:19:22 30° W 23:22:37 10° SW
IDEFIX/ARIANE 42P 2.6 23:15:54 10° N 23:21:10 81° W 23:26:29 10° SSW
MSX 4.2 23:15:28 10° NNE 23:21:12 70° ESE 23:27:00 10° S
Cosmos 2084 Rocket 3.8 23:17:17 11° SW 23:21:37 53° WNW 23:25:58 10° NNE
SKYMED 2 3.6 23:17:20 10° SSE 23:21:46 87° W 23:26:09 10° NNW
Cosmos 2322 Rocket 3.6 23:20:33 12° W 23:23:30 17° SW 23:27:10 10° S
Cosmos 2278 Rocket 4.2 23:19:21 10° S 23:24:02 25° SE 23:28:41 10° ENE
Spot 1 4.2 23:21:30 10° NNE 23:25:47 88° ESE 23:30:23 10° SSW
Intercosmos 25 Rocket 3.8 23:20:18 10° S 23:26:10 84° E 23:29:55 10° N
Cosmos 1544 Rocket 3.6 23:23:35 10° S 23:28:02 90° ENE 23:32:27 10° N
Cosmos 1484 Rocket 3.0 23:29:54 10° NNE 23:33:58 83° ESE 23:38:04 10° S
Cosmos 2219 Rocket 3.2 23:28:40 10° N 23:34:07 54° ENE 23:39:39 10° SSE
Cosmos 1452 Rocket 3.6 23:29:46 10° SSW 23:35:08 87° ESE 23:40:26 10° NNE
RESURS DK-1 2.6 23:31:17 10° SSW 23:35:30 76° ESE 23:39:40 10° NNE
CZ-4 R/B 3.4 23:35:43 10° WNW 23:36:52 11° W 23:38:01 10° WSW
Meteor 1-5 Rocket 4.4 23:31:49 10° S 23:37:19 79° E 23:42:54 10° NNE
ATLAS CENTAUR R/B 3.8 23:37:01 10° N 23:40:01 24° ENE 23:42:58 10° ESE
Cosmos 1315 Rocket 4.1 23:37:23 10° S 23:41:16 44° ESE 23:45:08 10° NNE
GENESIS II 4.3 23:39:35 10° NNW 23:43:26 79° ENE 23:47:15 10° SE
Helios 1B rocket 2.4 23:41:01 10° S 23:45:15 75° WSW 23:49:26 10° NNW
